Wind_Speed
13 13 14 14 14 14 14 13 14 14 14 13 13 13 14 13 13 14 14 14 14 14 15 15 15 15 16 16 15 15 15 15 15 15 15 16 16 16 17 17 17 17 18
13 13 14 14 14 14 14 15 15 15 14 14 14 14 15 15 15 15 16 15 15 15 15 16 16 16 16 16 16 16 16 16 16 16 17 16 16 17 17 18 18 18 19
13 14 14 14 15 15 15 15 15 15 14 14 14 15 15 16 16 16 16 16 16 16 16 17 17 16 17 18 18 18 18 19 19 19 18 18 18 18 18 19 20 20 20
13 14 14 14 15 15 15 15 15 15 16 16 15 16 16 16 16 16 16 17 17 17 17 17 17 17 18 19 19 20 20 20 20 20 20 21 20 20 20 20 21 22 23
15 15 15 15 15 15 15 16 16 16 16 16 16 17 17 16 17 17 18 18 18 18 18 18 18 19 19 19 19 21 21 22 22 21 22 22 22 23 22 22 22 22 23
15 15 15 15 16 16 16 16 15 16 16 17 17 18 17 17 18 18 18 19 19 19 19 19 20 20 19 20 20 21 22 22 22 22 23 23 24 24 24 24 23 23 24
15 15 15 16 16 16 16 16 16 16 17 17 18 18 18 18 19 19 19 19 19 19 20 21 21 20 21 21 21 21 22 22 23 23 23 24 24 24 25 25 24 25 25
14 15 16 16 17 17 16 17 17 17 18 18 17 18 18 18 19 19 19 19 19 20 21 21 21 21 22 22 22 22 22 23 23 23 23 24 25 24 24 24 25 26 26
13 15 15 15 16 17 17 18 18 19 19 18 18 18 18 18 19 19 20 20 20 21 21 21 21 22 22 23 23 23 22 23 23 24 24 24 25 25 24 24 24 25 26
14 14 14 15 16 17 18 19 19 19 19 19 18 18 18 19 20 20 20 21 22 22 22 21 22 22 23 23 22 23 23 23 23 24 25 25 25 25 24 24 25 26 26
15 15 15 16 17 18 19 19 19 19 19 18 18 19 19 19 20 20 20 21 22 22 21 22 22 23 23 23 23 23 23 23 23 23 24 24 25 25 26 26 26 27 27
15 15 16 17 18 18 19 19 19 19 19 19 19 19 19 19 20 20 21 20 21 21 21 21 22 22 22 22 22 22 22 22 22 22 23 23 24 25 26 27 27 27 27
16 17 17 18 18 19 19 20 20 20 20 20 20 20 20 20 20 21 21 21 21 21 22 21 21 21 22 21 21 21 22 22 22 21 21 23 23 25 25 27 27 27 27
16 17 17 18 19 18 19 20 21 21 20 21 21 21 21 21 22 22 22 22 22 21 21 21 21 22 22 21 21 21 21 21 21 21 21 22 24 25 25 26 27 27 28
17 17 18 18 19 19 19 20 20 20 20 20 21 21 21 22 23 23 23 23 22 22 22 22 22 23 23 22 21 21 20 21 21 22 22 23 24 25 25 26 27 28 28
18 18 19 19 19 19 20 20 20 20 21 21 21 22 22 23 22 23 23 23 23 23 23 23 23 23 23 23 23 23 23 23 22 23 23 24 25 26 26 26 27 27 27
18 19 20 20 20 20 20 21 21 21 21 21 22 22 23 23 23 23 23 22 22 23 22 22 22 22 22 23 23 23 24 24 24 24 24 24 25 26 26 26 26 26 27
20 20 20 21 21 21 21 21 22 22 22 22 22 23 23 22 23 22 22 22 22 22 22 22 22 22 22 22 23 23 23 24 24 25 25 24 25 25 26 26 27 27 27
21 21 21 21 21 22 22 22 23 23 23 23 23 23 23 23 22 22 22 22 22 22 21 21 22 22 22 22 23 22 23 24 24 25 25 25 25 25 25 26 26 27 27
21 22 21 22 22 23 23 23 24 24 24 23 23 23 23 22 22 21 21 21 21 21 21 21 21 21 21 22 23 23 23 25 25 25 24 24 25 25 25 26 26 27 28
22 22 22 22 22 23 23 23 23 24 23 22 22 22 22 22 21 22 22 21 21 21 21 21 22 22 22 22 23 23 24 24 25 25 24 24 25 25 26 27 26 27 28
22 22 23 23 23 23 24 24 23 23 23 22 22 23 22 22 22 22 22 21 21 21 22 22 22 23 23 23 24 24 25 24 24 24 24 24 25 25 26 27 27 27 28
22 21 22 22 22 23 23 23 23 23 23 23 23 23 23 23 23 22 22 22 22 22 22 22 22 23 23 23 24 24 24 24 24 24 24 24 24 24 25 26 27 27 27
22 22 21 21 21 22 22 22 22 22 23 22 22 23 23 22 23 23 23 23 23 23 23 23 23 23 23 24 24 24 23 23 24 25 25 25 25 25 25 26 27 27 27
22 22 23 22 21 21 21 21 22 22 22 22 22 22 22 22 23 23 23 24 24 24 24 24 24 24 24 25 25 24 24 24 24 25 25 25 25 25 26 25 26 26 26
21 22 22 21 21 21 21 21 22 22 22 22 22 22 23 23 24 24 24 24 24 24 24 25 25 25 25 25 25 25 25 24 23 23 24 24 25 25 25 26 26 26 25
Wind_Direction
264 266 267 265 262 261 263 264 266 266 267 270 270 269 272 275 277 276 277 278 277 277 277 276 272 271 270 269 267 264 261 259 257 256 255 257 258 256 255 255 255 253 251
263 264 262 260 260 259 260 262 266 264 264 265 266 269 272 275 275 275 277 278 279 278 277 276 275 273 271 268 267 264 261 260 258 258 256 256 258 258 256 255 255 255 255
262 261 260 260 258 258 260 262 262 259 260 265 267 270 273 274 273 275 278 279 279 280 281 279 277 274 271 267 265 264 262 261 260 260 258 257 257 257 256 257 257 255 256
260 260 260 262 260 261 261 261 260 259 262 264 267 271 273 275 274 276 279 278 279 282 282 280 277 274 273 270 267 265 265 263 262 260 260 258 258 258 258 258 258 257 256
258 258 258 259 260 258 260 261 262 262 264 264 267 270 273 275 278 276 280 279 280 281 280 277 276 275 273 271 270 268 266 266 264 261 261 260 259 259 260 260 259 258 256
258 257 256 257 257 257 259 260 264 265 266 267 269 272 273 276 277 279 280 281 282 280 281 280 279 276 274 271 272 270 269 268 266 263 262 262 261 260 261 261 260 259 258
258 256 255 257 257 257 258 261 264 266 268 269 271 273 274 275 277 281 283 284 282 282 283 282 280 278 276 275 274 273 271 269 267 266 265 264 264 263 262 262 262 261 260
258 256 256 255 256 258 261 265 267 269 271 273 273 273 273 274 278 282 285 283 282 282 283 283 280 278 278 277 276 275 272 270 269 267 266 265 263 264 263 262 264 263 263
258 256 255 256 257 260 263 268 272 272 272 272 272 272 272 274 278 280 281 281 282 283 284 283 279 279 281 278 275 274 274 273 272 270 267 264 262 263 263 264 264 264 265
260 257 258 263 261 260 263 268 271 273 274 272 270 271 274 277 280 280 280 281 282 283 283 281 281 281 281 280 277 276 275 274 273 271 268 265 263 264 264 265 266 265 264
261 257 259 262 265 267 268 270 271 273 273 271 269 271 275 279 281 282 281 281 282 282 281 280 282 284 282 281 279 277 276 274 273 271 269 266 265 266 267 269 268 267 265
263 261 259 262 264 267 269 270 271 272 270 271 273 274 276 279 282 283 282 282 282 282 280 280 283 285 285 281 280 278 276 275 274 271 269 269 269 269 269 269 269 268 267
268 265 263 262 263 266 268 270 272 272 273 273 274 275 276 277 280 282 283 282 282 281 280 280 283 285 285 282 280 277 277 276 274 272 271 271 271 271 273 272 270 268 267
268 266 265 265 265 266 268 270 272 271 275 273 273 275 275 275 278 281 282 280 280 282 280 280 281 282 282 281 281 279 278 276 273 272 272 274 275 275 276 275 272 270 267
267 265 267 269 267 267 268 271 272 273 275 277 277 277 276 276 276 278 281 282 281 283 283 281 280 282 281 279 280 281 279 277 275 273 274 276 276 275 276 277 273 271 269
269 267 268 269 268 269 269 270 272 273 274 277 279 280 280 278 276 277 278 279 279 281 282 280 280 282 279 279 281 280 279 280 279 278 279 278 277 276 277 277 276 274 271
271 270 270 269 269 269 269 270 272 273 275 277 280 280 279 280 278 279 279 281 281 282 281 279 279 279 279 279 280 279 280 280 281 281 280 278 277 277 277 277 276 274 272
274 272 271 270 269 269 269 270 272 274 275 277 279 281 280 281 281 281 280 281 282 281 279 278 278 280 280 280 280 281 282 282 281 281 280 279 279 278 278 278 278 276 274
276 275 273 270 268 268 269 271 273 275 277 278 278 278 279 280 281 281 281 281 281 281 279 279 279 280 282 282 282 282 282 282 282 281 280 280 280 279 280 280 280 278 275
276 275 273 271 269 269 270 273 274 275 278 278 277 276 277 278 278 279 281 282 281 281 281 281 280 281 283 283 283 282 282 283 283 282 280 279 279 280 280 280 279 279 276
277 275 273 272 271 271 271 273 274 276 277 277 275 275 277 277 277 278 280 283 283 283 282 282 282 282 283 284 284 283 282 284 283 282 280 279 279 280 279 279 279 280 276
278 277 274 272 270 270 271 273 274 275 275 275 274 274 275 277 277 280 280 281 282 282 281 281 281 282 284 285 286 285 283 284 284 282 281 282 284 283 284 283 282 280 279
282 278 276 274 271 270 272 274 275 275 275 274 273 273 275 277 277 279 280 280 280 281 281 282 282 283 283 284 286 286 286 286 285 285 284 285 286 287 286 285 284 283 283
281 279 276 276 275 275 275 275 275 277 276 273 272 273 274 275 276 277 277 278 280 280 281 281 282 284 284 284 286 287 286 287 288 287 286 286 287 288 289 289 289 286 284
281 280 278 276 276 276 275 274 275 277 276 276 275 275 275 275 278 277 277 277 279 280 280 280 281 283 284 285 286 286 286 287 289 289 289 289 289 288 290 291 290 287 285
282 281 279 277 276 275 275 274 275 274 274 274 275 276 277 278 279 279 278 277 279 279 280 281 283 283 284 284 285 286 286 286 287 289 290 290 290 290 291 292 291 288 287
Height
5853 5853 5854 5855 5856 5857 5857 5858 5858 5859 5859 5859 5860 5860 5861 5861 5861 5861 5861 5861 5861 5861 5861 5861 5861 5861 5861 5861 5862 5862 5863 5864 5864 5865 5865 5866 5867 5868 5869 5870 5871 5872 5873
5849 5850 5851 5851 5852 5853 5854 5854 5855 5855 5856 5856 5857 5857 5858 5858 5858 5858 5858 5858 5858 5857 5857 5857 5857 5857 5857 5857 5858 5858 5859 5860 5860 5861 5862 5863 5863 5864 5865 5866 5867 5868 5868
5846 5846 5847 5848 5849 5850 5851 5851 5851 5852 5852 5853 5854 5854 5854 5854 5854 5854 5854 5854 5854 5854 5853 5853 5853 5852 5853 5853 5853 5854 5854 5855 5856 5857 5857 5858 5859 5860 5860 5861 5862 5863 5863
5843 5843 5844 5844 5845 5846 5847 5848 5848 5849 5849 5849 5850 5850 5850 5850 5850 5850 5850 5850 5850 5849 5849 5848 5848 5848 5848 5848 5848 5849 5849 5850 5850 5851 5852 5853 5854 5854 5855 5856 5856 5857 5858
5839 5840 5840 5841 5842 5843 5844 5844 5845 5845 5845 5846 5846 5846 5846 5847 5846 5846 5846 5845 5845 5844 5844 5843 5843 5843 5843 5843 5843 5843 5844 5844 5845 5846 5846 5847 5848 5849 5849 5850 5850 5851 5852
5835 5836 5837 5838 5839 5839 5840 5840 5841 5841 5842 5842 5842 5842 5842 5842 5842 5841 5841 5840 5840 5840 5839 5838 5838 5837 5837 5837 5837 5838 5838 5838 5839 5840 5840 5841 5842 5842 5843 5844 5844 5845 5845
5832 5832 5833 5834 5835 5836 5836 5837 5837 5837 5838 5838 5838 5838 5838 5838 5837 5837 5836 5835 5835 5834 5834 5833 5832 5832 5832 5832 5832 5832 5832 5832 5833 5833 5834 5835 5835 5835 5836 5837 5837 5838 5839
5828 5829 5829 5830 5831 5832 5832 5833 5833 5833 5833 5833 5834 5833 5833 5834 5833 5832 5831 5831 5830 5829 5828 5827 5827 5826 5826 5826 5826 5826 5826 5826 5826 5827 5827 5828 5828 5828 5829 5830 5830 5831 5832
5824 5825 5825 5826 5827 5828 5828 5829 5829 5829 5829 5829 5829 5829 5829 5829 5828 5828 5827 5826 5825 5824 5823 5822 5821 5821 5820 5820 5820 5820 5820 5820 5820 5820 5820 5821 5821 5822 5822 5823 5823 5824 5824
5821 5821 5822 5823 5823 5824 5824 5825 5825 5824 5824 5824 5824 5824 5824 5824 5823 5823 5822 5821 5820 5819 5817 5817 5816 5815 5814 5814 5814 5814 5814 5813 5813 5813 5814 5814 5814 5814 5814 5815 5816 5816 5816
5817 5817 5818 5819 5820 5820 5820 5820 5820 5820 5820 5820 5819 5819 5819 5818 5818 5817 5817 5815 5814 5813 5812 5811 5810 5809 5808 5808 5807 5807 5807 5807 5807 5807 5807 5807 5808 5808 5808 5808 5808 5808 5808
5813 5813 5814 5815 5815 5815 5815 5815 5815 5815 5815 5815 5814 5814 5813 5813 5812 5812 5810 5809 5809 5808 5807 5806 5805 5804 5803 5802 5802 5801 5801 5801 5801 5801 5801 5801 5801 5801 5801 5801 5801 5800 5800
5808 5809 5809 5810 5810 5810 5811 5811 5811 5811 5810 5810 5809 5808 5808 5808 5807 5806 5805 5804 5803 5803 5802 5801 5800 5799 5797 5797 5796 5796 5795 5795 5795 5794 5794 5794 5794 5794 5794 5793 5793 5793 5792
5804 5804 5804 5805 5805 5805 5805 5805 5805 5805 5804 5804 5803 5803 5802 5802 5801 5800 5799 5799 5798 5797 5796 5795 5794 5793 5792 5791 5790 5790 5789 5789 5789 5788 5788 5788 5788 5787 5787 5785 5785 5785 5784
5799 5799 5799 5799 5800 5800 5800 5800 5800 5799 5799 5798 5798 5797 5797 5796 5795 5794 5793 5792 5792 5791 5791 5790 5788 5787 5786 5785 5785 5784 5783 5783 5782 5782 5782 5782 5781 5780 5779 5778 5777 5776 5776
5794 5794 5794 5794 5794 5794 5794 5794 5794 5793 5793 5793 5792 5791 5790 5790 5789 5788 5787 5786 5785 5785 5784 5783 5782 5781 5780 5779 5778 5778 5777 5776 5776 5776 5775 5774 5774 5773 5772 5771 5769 5768 5767
5789 5789 5789 5788 5788 5788 5788 5788 5788 5788 5787 5787 5786 5785 5785 5784 5783 5782 5781 5780 5779 5778 5777 5777 5775 5774 5774 5773 5772 5771 5771 5770 5769 5769 5768 5767 5766 5766 5765 5763 5762 5760 5759
5783 5783 5783 5783 5782 5782 5782 5782 5782 5782 5782 5781 5780 5779 5778 5778 5777 5776 5775 5774 5773 5772 5771 5770 5770 5768 5767 5767 5766 5765 5764 5763 5763 5762 5761 5760 5759 5758 5757 5756 5754 5753 5752
5777 5777 5776 5776 5776 5776 5776 5776 5776 5776 5775 5775 5774 5773 5772 5772 5771 5770 5769 5768 5767 5766 5765 5764 5763 5762 5761 5761 5760 5759 5758 5757 5756 5755 5754 5753 5752 5751 5749 5748 5746 5745 5744
5771 5771 5770 5769 5769 5769 5769 5769 5769 5769 5768 5768 5767 5767 5766 5765 5765 5764 5763 5762 5761 5760 5759 5758 5757 5756 5755 5754 5753 5752 5752 5750 5749 5748 5747 5746 5744 5743 5741 5740 5739 5737 5736
5765 5764 5763 5762 5762 5763 5763 5762 5762 5762 5761 5761 5761 5760 5760 5759 5759 5758 5757 5756 5755 5754 5753 5752 5751 5750 5749 5748 5747 5746 5745 5743 5742 5741 5739 5738 5737 5736 5733 5732 5730 5728 5727
5758 5757 5756 5755 5755 5755 5755 5755 5755 5755 5754 5754 5754 5754 5753 5753 5752 5752 5751 5750 5749 5748 5748 5747 5745 5744 5743 5741 5740 5739 5738 5737 5735 5735 5732 5731 5729 5727 5725 5723 5721 5720 5718
5751 5750 5749 5748 5748 5748 5748 5747 5747 5747 5747 5747 5747 5747 5747 5746 5746 5745 5744 5744 5743 5742 5742 5741 5739 5738 5737 5735 5734 5733 5731 5729 5728 5726 5725 5723 5722 5719 5717 5715 5713 5711 5709
5744 5743 5742 5742 5741 5740 5740 5740 5740 5740 5740 5740 5740 5740 5740 5739 5739 5739 5738 5737 5736 5735 5735 5734 5733 5731 5730 5729 5727 5726 5724 5722 5721 5719 5717 5716 5714 5712 5709 5707 5704 5702 5700
5737 5736 5735 5734 5734 5733 5733 5733 5733 5733 5733 5733 5733 5733 5732 5732 5732 5732 5731 5730 5729 5728 5728 5727 5726 5724 5723 5722 5720 5719 5717 5716 5714 5712 5710 5708 5706 5704 5702 5699 5697 5694 5692
5731 5729 5728 5727 5727 5727 5727 5726 5726 5726 5726 5726 5726 5726 5725 5725 5725 5724 5724 5723 5722 5721 5721 5719 5718 5717 5715 5714 5713 5712 5710 5709 5707 5705 5703 5701 5699 5696 5695 5692 5689 5686 5684